Location: Boussac
(44.2782°N, 2.3665°E)
Time: 20:12:23
(UTC+00:00)

COSMOS 2428 - Pass Details

Date: 15 May 2026
Orbit: 844 x 855 km, 70.9° (Epoch: 8 June)

Event Time Altitude Azimuth Distance (km) Brightness Sun altitude
Rises 22:50:41 0° 335° (NNW) 3,422 7.2 -25.4°
Reaches altitude 10° 22:53:09 10° 336° (NNW) 2,481 6.1 -25.5°
Maximum altitude 22:58:52 80° 64° (ENE) 863 2.6 -25.7°
Enters shadow 22:59:33 69° 129° (SE) 906 2.6 -25.8°
